Location: Cruquius
(52.3348°N, 4.6319°E)
Time: 08:21:01
(UTC+00:00)

Cosmos 967 Rocket - Pass Details

Date: 12 May 2021
Orbit: 952 x 985 km, 65.8° (Epoch: 20 June)

Event Time Altitude Azimuth Distance (km) Brightness Sun altitude
Exits shadow 22:11:15 18° 197° (SSW) 2,178 5.9 -16.8°
Maximum altitude 22:15:58 59° 123° (ESE) 1,091 4.5 -17.1°
Drops below altitude 10° 22:22:07 10° 45° (NE) 2,698 7.1 -17.4°
Sets 22:24:43 0° 42° (NE) 3,651 7.9 -17.5°
